Carnival Liberty — HPYE — position and weather

sailwx.info

Track history (hours):
 
Tides and Currents Weather Stations Pressure Air Temp Water Temp Dewpoint Dewpoint Depression Visibility Wind Speed Wind Dir Waves Ship Positions

Carnival Liberty

Last reported at 2016-Jul-30 17:29 UTC. Time now 2016-Jul-31 00:24 UTC.
Position N 29°19' W 094°48'.

Type: Ship. MMSI: 371083000.

Date/timePositionNaut miles runAvg speedWind from/ knotsBaromVisibWave heightAir tempDewpointWater temp
2016-Jul-30 17:29N 29°19' W 094°48'0 0.0
2016-Jul-30 16:29N 29°19' W 094°48'1 0.2
2016-Jul-30 12:31N 29°19' W 094°47'10 8.4
2016-Jul-30 11:22N 29°18' W 094°36'  
2016-Jul-28 00:05N 20°40' W 086°55'1018.9
2016-Jul-27 23:34N 20°31' W 087°00'3 2.7
2016-Jul-27 22:32N 20°29' W 086°59'0 0.0
2016-Jul-27 21:29N 20°29' W 086°59'0 0.0
2016-Jul-27 20:31N 20°29' W 086°59'0 0.0
2016-Jul-27 19:31N 20°29' W 086°59'0 0.0
2016-Jul-27 18:34N 20°29' W 086°59'0 0.0
2016-Jul-27 17:33N 20°29' W 086°59'0 0.0
2016-Jul-27 16:33N 20°29' W 086°59'0 0.0
2016-Jul-27 15:33N 20°29' W 086°59'0 0.0
2016-Jul-27 14:33N 20°29' W 086°59'0 0.1
2016-Jul-27 13:33N 20°29' W 086°59'7 7.3
2016-Jul-27 12:33N 20°36' W 086°58'65117.4
2016-Jul-25 23:10N 29°08' W 094°22'2514.9
2016-Jul-25 21:30N 29°21' W 094°46'3 0.8
2016-Jul-25 18:11N 29°19' W 094°48'0 0.0
2016-Jul-25 17:22N 29°19' W 094°48'0 0.0
2016-Jul-25 16:18N 29°19' W 094°48'0 0.0
2016-Jul-25 15:30N 29°19' W 094°48'0 0.0
2016-Jul-25 14:32N 29°19' W 094°48'0 0.0
2016-Jul-25 13:31N 29°19' W 094°48'0 0.0
2016-Jul-25 12:33N 29°19' W 094°48'67317.7
2016-Jul-23 22:29N 20°40' W 086°55'1211.9
2016-Jul-23 21:27N 20°29' W 086°59'0 0.0
2016-Jul-23 20:32N 20°29' W 086°59'0 0.0
2016-Jul-23 19:32N 20°29' W 086°59'0 0.0
2016-Jul-23 18:31N 20°29' W 086°59'0 0.0
2016-Jul-23 17:31N 20°29' W 086°59'0 0.0
2016-Jul-23 16:33N 20°29' W 086°59'0 0.0
2016-Jul-23 15:33N 20°29' W 086°59'0 0.0
2016-Jul-23 14:33N 20°29' W 086°59'0 0.0
2016-Jul-23 13:34N 20°29' W 086°59'6 6.2
2016-Jul-23 12:34N 20°35' W 086°58'67317.5
2016-Jul-21 22:10N 29°20' W 094°41'5 8.0
2016-Jul-21 21:31N 29°19' W 094°47'1 0.1
2016-Jul-21 13:13N 29°19' W 094°48'0 0.0
2016-Jul-21 12:33N 29°19' W 094°48'8 8.0
2016-Jul-21 11:33N 29°19' W 094°39'1111.0
2016-Jul-21 10:33N 29°12' W 094°29'  
Track history (hours):
 
Tides and Currents Weather Stations Pressure Air Temp Water Temp Dewpoint Dewpoint Depression Visibility Wind Speed Wind Dir Waves Ship Positions

Carnival Liberty

Last reported at 2016-Jul-30 17:29 UTC. Time now 2016-Jul-31 00:24 UTC.
Position N 29°19' W 094°48'.

Type: Ship. MMSI: 371083000.

Date/timePositionNaut miles runAvg speedWind from/ knotsBaromVisibWave heightAir tempDewpointWater temp
2016-Jul-30 17:29N 29°19' W 094°48'0 0.0
2016-Jul-30 16:29N 29°19' W 094°48'1 0.2
2016-Jul-30 12:31N 29°19' W 094°47'10 8.4
2016-Jul-30 11:22N 29°18' W 094°36'  
2016-Jul-28 00:05N 20°40' W 086°55'1018.9
2016-Jul-27 23:34N 20°31' W 087°00'3 2.7
2016-Jul-27 22:32N 20°29' W 086°59'0 0.0
2016-Jul-27 21:29N 20°29' W 086°59'0 0.0
2016-Jul-27 20:31N 20°29' W 086°59'0 0.0
2016-Jul-27 19:31N 20°29' W 086°59'0 0.0
2016-Jul-27 18:34N 20°29' W 086°59'0 0.0
2016-Jul-27 17:33N 20°29' W 086°59'0 0.0
2016-Jul-27 16:33N 20°29' W 086°59'0 0.0
2016-Jul-27 15:33N 20°29' W 086°59'0 0.0
2016-Jul-27 14:33N 20°29' W 086°59'0 0.1
2016-Jul-27 13:33N 20°29' W 086°59'7 7.3
2016-Jul-27 12:33N 20°36' W 086°58'65117.4
2016-Jul-25 23:10N 29°08' W 094°22'2514.9
2016-Jul-25 21:30N 29°21' W 094°46'3 0.8
2016-Jul-25 18:11N 29°19' W 094°48'0 0.0
2016-Jul-25 17:22N 29°19' W 094°48'0 0.0
2016-Jul-25 16:18N 29°19' W 094°48'0 0.0
2016-Jul-25 15:30N 29°19' W 094°48'0 0.0
2016-Jul-25 14:32N 29°19' W 094°48'0 0.0
2016-Jul-25 13:31N 29°19' W 094°48'0 0.0
2016-Jul-25 12:33N 29°19' W 094°48'67317.7
2016-Jul-23 22:29N 20°40' W 086°55'1211.9
2016-Jul-23 21:27N 20°29' W 086°59'0 0.0
2016-Jul-23 20:32N 20°29' W 086°59'0 0.0
2016-Jul-23 19:32N 20°29' W 086°59'0 0.0
2016-Jul-23 18:31N 20°29' W 086°59'0 0.0
2016-Jul-23 17:31N 20°29' W 086°59'0 0.0
2016-Jul-23 16:33N 20°29' W 086°59'0 0.0
2016-Jul-23 15:33N 20°29' W 086°59'0 0.0
2016-Jul-23 14:33N 20°29' W 086°59'0 0.0
2016-Jul-23 13:34N 20°29' W 086°59'6 6.2
2016-Jul-23 12:34N 20°35' W 086°58'67317.5
2016-Jul-21 22:10N 29°20' W 094°41'5 8.0
2016-Jul-21 21:31N 29°19' W 094°47'1 0.1
2016-Jul-21 13:13N 29°19' W 094°48'0 0.0
2016-Jul-21 12:33N 29°19' W 094°48'8 8.0
2016-Jul-21 11:33N 29°19' W 094°39'1111.0
2016-Jul-21 10:33N 29°12' W 094°29'  

Dump ship's entire track history